SCP
0 0 0 0 0 0 0 0 0 0 0 0 0 0 0 0 0 0 0 0 0 0 0 0 0 0 0 0 0 0 0 0 0 0 0 0 0 0
0 0 0 0 0 0 0 0 0 0 0 0 0 0 0 0 0 0 0 0 0 0 0 0 0 0 0 0 0 0 0 0 0 0 0 0 0 0
0 0 0 0 0 0 0 0 0 0 0 0 0 0 0 0 0 0 0 0 0 0 0 0 0 0 0 0 0 0 0 0 0 0 0 0 0 0
0 0 0 0 0 0 0 0 0 0 0 0 0 0 0 0 0 0 0 0 0 0 0 0 0 0 0 0 0 0 0 0 0 0 0 0 0 0
0 0 0 0 0 0 0 0 0 0 0 0 0 0 0 0 0 0 0 0 0 0 0 0 0 0 0 0 0 0 0 0 0 0 0 0 0 0
0 0 0 0 0 0 0 0 0 0 0 0 0 0 0 0 0 0 0 0 0 0 0 0 0 0 0 0 0 0 0 0 0 0 0 0 0 0
0 0 0 0 0 0 0 0 0 0 0 0 0 0 0 0 0 0 0 0 0 0 0 0 0 0 0 0 0 0 0 0 0 0 0 0 0 0
0 0 0 0 0 0 0 0 0 0 0 0 0 0 0 0 0 0 0 0 0 0 0 0 0 0 0 0 0 0 0 0 0 0 0 0 0 0
0 0 0 0 0 0 0 0 0 0 0 0 0 0 0 0 0 0 0 0 0 0 0 0 0 0 0 0 0 0 0 0 0 0 0 0 0 0
0 0 0 0 0 0 0 0 0 0 0 0 0 0 0 0 0 0 0 0 0 0 0 0 0 0 0 0 0 0 0 0 0 0 0 0 0 0
0 0 0 0 0 0 0 0 0 0 0 0 0 0 0 0 0 0 0 0 0 0 0 0 0 0 0 0 0 0 0 0 0 0 0 0 0 0
0 0 0 0 0 0 0 0 0 0 0 0 0 0 0 0 0 0 0 0 0 0 0 0 0 0 0 0 0 0 0 0 0 0 0 0 0 0
0 0 0 0 0 0 0 0 0 0 0 0 0 0 0 0 0 0 0 0 0 0 0 0 0 0 0 0 0 0 0 0 0 0 0 0 0 0
0 0 0 0 0 0 0 0 0 0 0 0 0 0 0 0 0 0 0 0 0 0 0 0 0 0 0 0 0 0 0 0 0 0 0 0 0 0
0 0 0 0 0 0 0 0 0 0 0 0 0 0 0 0 0 0 0 0 0 0 0 0 0 0 0 0 0 0 0 0 0 0 0 0 0 0
0 0 0 0 0 0 0 0 0 0 0 0 0 0 0 0 0 0 0 0 0 0 0 0 0 0 0 0 0 0 0 0 0 0 0 0 0 0
0 0 0 0 0 0 0 0 0 0 0 0 0 0 0 0 0 0 0 0 0 0 0 0 0 0 0 0 0 0 0 0 0 0 0 0 0 0
0 0 0 0 0 0 0 0 0 0 0 0 0 0 0 0 0 0 0 0 0 0 0 0 0 0 0 0 0 0 0 0 0 0 0 0 0 0
0 0 0 0 0 0 0 0 0 0 0 0 0 0 0 0 0 0 0 0 0 0 0 0 0 0 0 0 0 0 0 0 0 0 0 0 0 0
0 0 0 0 0 0 0 0 0 0 0 0 0 0 0 0 0 0 0 0 0 0 0 0 0 0 0 0 0 0 0 0 0 0 0 0 0 0
0 0 0 0 0 0 0 0 0 0 0 0 0 0 0 0 0 0 0 0 0 0 0 0 0 0 0 0 0 0 0 0 0 0 0 0 0 0
0 0 0 0 0 0 0 0 0 0 0 0 0 0 0 0 0 0 0 0 0 0 0 0 0 0 0 0 0 0 0 0 0 0 0 0 0 0
0 0 0 0 0 0 0 0 0 0 0 0 0 0 0 0 0 0 0 0 0 0 0 0 0 0 0 0 0 0 0 0 0 0 0 0 0 0
Wind_Speed
4 4 3 3 2 2 2 3 3 3 4 4 3 2 2 2 3 2 3 6 7 8 9 10 10 11 11 11 12 12 13 13 13 13 14 14 14 15
3 3 3 2 2 2 2 2 3 4 4 3 3 2 2 3 4 2 3 6 7 8 9 10 10 11 11 12 13 13 13 13 14 14 14 14 15 15
3 3 4 3 2 2 2 2 3 3 5 4 2 2 2 3 3 2 3 3 4 8 10 10 10 11 12 13 13 13 13 13 14 14 14 15 15 15
4 3 4 3 3 2 2 3 3 3 4 6 4 3 3 3 2 3 3 3 4 8 10 10 11 11 12 12 13 13 13 13 14 14 14 15 15 16
4 4 4 4 4 3 3 3 3 3 3 4 4 3 2 2 2 3 4 3 4 6 9 10 11 12 12 12 13 13 13 13 14 14 14 14 15 15
4 4 4 5 5 5 4 4 3 3 2 3 4 3 3 2 2 3 4 3 4 4 7 8 10 12 13 13 13 13 13 13 13 13 13 14 14 15
3 4 4 5 5 4 3 3 3 3 3 3 4 3 3 2 3 2 5 5 5 3 4 5 6 6 7 10 12 12 13 13 14 14 14 14 14 14
4 3 3 4 5 6 5 5 4 4 4 4 4 5 5 4 3 3 4 4 5 2 3 6 4 6 6 5 10 13 13 14 14 14 14 14 14 15
4 3 3 3 4 4 5 6 5 6 6 4 5 6 5 4 4 4 5 5 7 4 3 6 4 7 6 7 13 14 14 14 14 14 15 15 15 15
4 4 4 4 4 4 4 4 4 5 5 5 5 5 4 4 4 5 6 6 6 4 3 6 5 5 5 6 12 14 14 14 14 15 15 15 15 15
4 4 4 4 5 6 4 4 5 5 5 6 7 7 7 7 4 2 2 3 5 5 2 4 4 5 6 5 7 12 13 14 15 15 15 15 15 13
3 4 5 5 6 6 4 4 5 5 3 3 4 6 5 5 5 3 3 3 4 5 3 3 3 3 5 4 4 4 6 11 14 15 15 15 14 8
3 3 3 6 6 7 5 4 6 4 2 3 3 3 3 3 4 4 4 4 5 6 3 2 3 3 4 5 5 4 4 5 6 8 11 13 13 10
4 3 4 6 7 7 5 6 6 3 1 2 3 4 4 4 4 4 5 6 7 8 6 4 4 4 4 5 6 4 4 5 5 6 5 9 10 12
3 5 5 6 6 5 6 6 4 2 2 3 5 5 4 4 3 3 4 5 7 7 6 6 6 6 6 7 6 5 5 5 5 5 5 5 5 5
4 4 5 6 5 4 3 4 3 3 3 4 5 4 3 3 3 3 4 4 4 5 5 6 7 7 7 8 8 8 6 5 4 5 6 6 5 5
1 1 1 2 2 2 2 3 2 2 4 4 4 4 4 4 4 3 3 3 4 5 5 3 4 5 7 7 7 8 7 6 6 5 5 6 6 5
2 2 3 3 3 3 4 4 4 4 4 4 4 4 4 4 4 3 3 4 5 6 5 4 3 3 3 5 9 8 6 6 5 5 5 6 7 5
3 3 4 4 4 4 4 4 4 4 4 4 5 5 4 4 4 4 4 4 5 5 5 4 3 3 4 7 6 6 5 5 4 5 5 5 7 7
3 4 4 4 4 4 4 4 4 3 3 4 4 5 5 4 4 5 5 5 5 5 5 4 4 4 6 6 6 6 8 6 5 6 5 5 6 9
4 4 5 4 4 4 4 4 4 4 4 4 4 5 4 4 5 5 5 6 5 5 6 6 5 5 4 4 6 7 5 8 8 6 5 5 6 5
5 5 5 5 4 4 4 4 4 5 5 5 5 5 4 4 6 6 5 5 5 5 6 5 4 3 3 5 7 8 7 6 7 10 10 9 5 5
5 5 5 4 4 4 4 4 5 5 5 5 5 5 4 5 5 5 5 5 5 5 5 5 4 3 4 5 6 7 8 7 5 5 5 8 11 13
Wind_Direction
221 221 224 233 226 225 216 206 207 249 265 248 248 257 258 257 269 253 261 291 294 296 297 297 298 297 295 295 297 293 290 291 292 292 292 293 294 293
221 221 228 232 229 227 224 228 222 224 252 252 243 258 265 280 287 272 269 299 293 294 294 294 295 294 293 293 293 293 291 292 292 292 291 292 292 293
224 221 232 224 220 226 224 227 229 218 249 271 262 257 244 266 291 282 274 278 289 293 292 291 293 292 292 291 290 292 292 293 293 293 292 292 292 291
226 222 233 222 221 224 223 230 234 225 233 262 270 263 250 259 278 286 293 294 286 291 293 290 292 293 292 290 288 290 292 292 291 290 290 290 290 290
224 221 227 216 226 229 227 231 237 241 238 250 271 271 268 280 294 294 290 284 289 291 290 288 290 291 289 288 288 289 289 289 287 287 288 290 291 290
229 226 223 220 224 223 226 228 231 237 241 251 266 276 277 287 291 289 297 289 289 291 290 290 292 290 286 284 285 286 286 286 287 288 287 288 290 290
234 232 230 228 228 228 229 224 221 229 234 246 260 270 270 280 277 279 283 298 286 268 290 284 284 279 278 278 278 279 281 284 286 287 287 286 287 289
234 239 238 225 228 231 235 235 228 228 229 234 247 253 264 264 267 270 279 295 288 266 283 281 268 272 273 262 275 277 278 282 284 286 287 288 288 288
231 233 240 240 231 231 232 237 244 248 239 233 241 250 259 253 252 263 264 264 266 276 289 278 268 268 272 275 279 276 277 280 284 285 287 288 288 286
234 233 234 235 233 225 218 230 243 248 249 244 243 251 253 249 239 246 256 269 276 268 252 268 276 273 282 277 276 273 278 282 284 285 286 287 287 287
240 239 237 237 240 231 222 234 251 259 262 257 261 265 267 269 269 261 259 269 274 268 240 259 276 289 284 272 271 274 279 283 283 285 287 288 288 288
245 241 238 238 244 234 226 228 244 255 251 265 268 274 272 271 264 237 229 242 263 268 232 242 266 299 295 277 272 276 279 281 283 286 288 287 288 285
242 244 243 241 246 244 239 230 246 258 238 242 256 264 268 263 256 246 238 234 239 248 244 235 252 249 255 287 285 269 266 274 280 281 284 286 289 289
244 247 249 250 250 250 248 254 264 265 244 253 257 259 262 263 263 260 254 249 246 250 248 233 242 241 254 272 278 280 275 274 275 276 274 280 284 288
254 257 261 259 257 251 250 256 252 226 233 249 256 260 261 264 268 271 266 260 259 255 248 236 242 248 244 254 268 276 288 282 267 267 273 272 272 274
259 259 255 257 255 259 258 249 234 227 231 246 258 265 272 267 260 261 269 276 275 269 248 237 239 243 252 254 256 265 262 266 272 272 277 275 271 264
256 272 263 261 249 257 259 254 242 235 241 249 253 260 264 265 265 260 257 264 264 275 279 267 254 254 255 255 256 253 258 263 262 272 280 278 271 263
206 235 241 245 248 252 255 258 248 243 243 246 250 251 254 258 265 264 253 251 263 272 277 281 295 306 296 266 239 249 253 259 269 268 264 272 278 272
210 232 240 241 245 247 247 249 255 259 254 248 251 253 252 255 257 259 257 259 265 271 277 277 269 254 274 284 278 241 250 270 276 273 264 262 271 278
230 236 243 245 245 246 248 251 258 262 258 256 256 255 248 248 254 256 254 255 265 274 278 270 252 242 245 265 279 279 265 261 265 269 272 275 274 281
236 241 244 247 249 248 247 248 249 253 257 257 257 258 255 247 250 254 256 259 259 263 267 268 264 265 267 273 275 277 270 262 267 266 272 282 289 291
240 243 245 244 244 246 248 249 251 252 253 253 256 256 256 254 254 253 251 253 255 258 266 275 282 271 247 248 266 280 288 287 281 282 272 267 270 270
245 246 247 246 245 246 248 250 253 257 256 257 258 259 257 258 259 259 258 254 257 263 269 277 278 263 254 255 266 276 281 289 295 295 285 282 279 276